Stations météo

réclame
Mon MeteoGroup
Gemini, Pays-Bas (6214): Température de l'air & dewpoint: 13.11.2017 20:00:00 - 19.11.2017 20:00:00 (CET)Gemini, Pays-Bas (6214): Vitesse du vent & gusts: 13.11.2017 20:00:00 - 19.11.2017 20:00:00 (CET)Gemini, Pays-Bas (6214): Direction du vent: 13.11.2017 20:00:00 - 19.11.2017 20:00:00 (CET)Gemini, Pays-Bas (6214): reduced air pressure: 13.11.2017 20:00:00 - 19.11.2017 20:00:00 (CET)Gemini, Pays-Bas (6214): visibility: 13.11.2017 20:00:00 - 19.11.2017 20:00:00 (CET)
Date & Time tt [°C] td [°C] ff [km/h] ff [knt] fx [km/h] fx [knt] dd ppp [hPa] vv [km]
19.11.2017 20:00:00 8,9 3,0 48 26 61 33 N 1015,4 -
19.11.2017 19:00:00 9,3 1,5 55 30 - - NNW 1014,8 -
19.11.2017 18:00:00 8,2 1,8 55 30 76 41 NNW 1014,6 -
19.11.2017 17:00:00 9,4 3,0 57 31 65 35 NNW 1013,8 -
19.11.2017 16:00:00 9,4 2,9 59 32 - - NNW 1013,2 -
19.11.2017 15:00:00 7,7 3,0 61 33 68 37 NNW 1012,9 -
19.11.2017 14:00:00 9,5 1,9 67 36 72 39 NNW 1012,5 -
19.11.2017 13:00:00 8,9 3,2 70 38 - - N 1012,0 -
19.11.2017 12:00:00 9,6 2,9 63 34 72 39 N 1011,6 -
19.11.2017 11:00:00 9,9 1,7 65 35 72 39 N 1011,2 -
19.11.2017 10:00:00 9,8 2,9 68 37 - - NNW 1010,5 -
19.11.2017 09:00:00 8,8 3,9 61 33 79 43 NNW 1010,2 -
19.11.2017 08:00:00 9,5 2,7 61 33 72 39 NNW 1009,3 -
19.11.2017 07:00:00 9,4 3,9 70 38 - - NNW 1008,8 10
19.11.2017 06:00:00 9,5 3,1 61 33 72 39 NNW 1008,4 10
19.11.2017 05:00:00 9,1 1,7 61 33 86 47 NNW 1008,3 10
19.11.2017 04:00:00 9,5 2,1 59 32 - - NNW 1008,8 10
19.11.2017 03:00:00 7,3 2,6 50 27 76 41 NW 1009,5 10
19.11.2017 02:00:00 9,3 2,6 59 32 61 33 NW 1009,1 -
19.11.2017 01:00:00 8,9 2,8 55 30 - - NNW 1009,4 -
19.11.2017 00:00:00 8,0 3,3 52 28 68 37 NW 1010,2 -
18.11.2017 23:00:00 9,0 -0,2 52 28 58 31 NW 1010,4 -
18.11.2017 22:00:00 8,7 1,4 48 26 - - NW 1010,7 -
18.11.2017 21:00:00 9,1 1,1 48 26 54 29 NW 1010,9 -
18.11.2017 20:00:00 9,0 0,2 52 28 54 29 NW 1011,2 -
18.11.2017 19:00:00 9,0 -0,5 48 26 - - NW 1011,3 -
18.11.2017 18:00:00 9,0 -0,7 54 29 54 29 NW 1011,6 -
18.11.2017 17:00:00 8,6 1,8 46 25 58 31 NNW 1011,6 -
18.11.2017 16:00:00 8,6 2,1 46 25 - - NNW 1011,8 -
18.11.2017 15:00:00 8,0 1,9 52 28 61 33 NNW 1011,5 10
18.11.2017 14:00:00 8,9 0,2 52 28 58 31 NNW 1011,5 10
18.11.2017 13:00:00 8,5 0,8 46 25 - - NNW 1011,4 10
18.11.2017 12:00:00 8,6 0,4 44 24 65 35 NW 1011,3 10
18.11.2017 11:00:00 7,2 3,5 54 29 68 37 N 1012,1 5
18.11.2017 10:00:00 8,1 2,5 48 26 - - NNW 1011,3 10
18.11.2017 09:00:00 9,5 5,6 70 38 83 45 WNW 1011,6 20
18.11.2017 08:00:00 9,2 4,1 61 33 79 43 WNW 1012,2 -
18.11.2017 07:00:00 10,2 3,7 59 32 - - WNW 1013,2 -
18.11.2017 06:00:00 9,2 4,5 57 31 65 35 WNW 1014,0 -
18.11.2017 05:00:00 9,2 4,9 52 28 68 37 W 1015,3 -
18.11.2017 04:00:00 9,7 4,4 59 32 - - W 1016,5 -
18.11.2017 03:00:00 9,8 4,5 55 30 61 33 W 1017,6 -
18.11.2017 02:00:00 10,3 4,2 50 27 54 29 W 1018,3 -
18.11.2017 01:00:00 10,1 4,2 44 24 - - W 1019,0 -
18.11.2017 00:00:00 10,1 2,9 41 22 43 23 W 1019,6 -
17.11.2017 23:00:00 10,1 2,6 41 22 43 23 WNW 1020,3 -
17.11.2017 22:00:00 10,1 -0,5 39 21 - - WNW 1021,1 -
17.11.2017 21:00:00 10,0 3,4 39 21 43 23 W 1021,2 -
17.11.2017 20:00:00 9,8 3,7 29 16 47 25 W 1021,6 -
17.11.2017 19:00:00 9,7 3,5 31 17 - - W 1022,4 -
17.11.2017 18:00:00 9,1 4,2 34 18 47 25 W 1022,9 -
17.11.2017 17:00:00 9,9 2,3 34 18 40 21 WNW 1023,4 -
17.11.2017 16:00:00 10,1 3,0 34 18 - - WNW 1023,5 -
17.11.2017 15:00:00 9,9 2,7 37 20 43 23 WNW 1023,6 -
17.11.2017 14:00:00 10,6 1,9 28 15 36 19 WNW 1024,3 -
17.11.2017 13:00:00 10,8 2,8 29 16 - - W 1024,9 -
17.11.2017 12:00:00 11,1 1,3 24 13 29 16 WNW 1025,2 -
17.11.2017 11:00:00 10,9 1,0 26 14 29 16 WNW 1025,5 -
17.11.2017 10:00:00 10,2 1,2 18 10 - - WNW 1025,3 -
17.11.2017 09:00:00 9,8 2,7 24 13 36 19 WNW 1025,5 -
17.11.2017 08:00:00 9,8 1,7 22 12 29 16 WNW 1025,0 -
17.11.2017 07:00:00 9,7 2,3 24 13 - - WNW 1024,8 -
17.11.2017 06:00:00 9,7 1,1 28 15 32 18 NW 1024,6 -
17.11.2017 05:00:00 9,2 2,8 24 13 29 16 N 1024,2 -
17.11.2017 04:00:00 9,9 -0,2 18 10 - - NNW 1024,0 -
17.11.2017 03:00:00 9,9 2,0 28 15 29 16 N 1023,9 -
17.11.2017 02:00:00 10,0 0,7 21 11 29 16 NNW 1023,5 -
17.11.2017 01:00:00 9,9 0,4 29 16 - - NNW 1023,1 -
17.11.2017 00:00:00 10,0 0,3 26 14 40 21 N 1022,8 -
16.11.2017 23:00:00 10,1 2,6 37 20 43 23 N 1022,2 -
16.11.2017 22:00:00 10,3 2,4 35 19 - - N 1021,6 -
16.11.2017 21:00:00 10,6 3,8 37 20 43 23 N 1020,6 -
16.11.2017 20:00:00 10,8 6,1 41 22 43 23 NNW 1019,6 10
16.11.2017 19:00:00 10,2 5,7 37 20 - - NNW 1018,9 10
16.11.2017 18:00:00 12,0 9,0 39 21 43 23 W 1018,3 -
16.11.2017 17:00:00 11,9 9,3 29 16 43 23 W 1018,5 -
16.11.2017 16:00:00 11,7 10,1 31 17 - - WSW 1018,3 -
16.11.2017 15:00:00 11,2 10,1 41 22 43 23 SW 1018,7 -
16.11.2017 14:00:00 11,2 10,1 37 20 43 23 SW 1018,9 -
16.11.2017 13:00:00 10,7 9,6 35 19 - - SW 1019,3 -
16.11.2017 12:00:00 10,8 9,6 35 19 40 21 SW 1019,8 -
16.11.2017 11:00:00 10,9 9,3 31 17 36 19 SW 1020,4 -
16.11.2017 10:00:00 10,9 9,7 28 15 - - SW 1020,0 -
16.11.2017 09:00:00 11,2 9,7 24 13 32 18 SW 1020,4 -
16.11.2017 08:00:00 10,9 9,0 21 11 29 16 SW 1020,1 -
16.11.2017 07:00:00 10,5 9,2 24 13 - - SW 1020,1 -
16.11.2017 06:00:00 10,7 9,7 29 16 32 18 SW 1020,3 10
16.11.2017 05:00:00 10,7 9,7 22 12 29 16 SW 1020,5 -
16.11.2017 04:00:00 10,5 9,5 28 15 - - SW 1021,2 -
16.11.2017 03:00:00 10,8 9,7 24 13 32 18 SW 1021,7 10
16.11.2017 02:00:00 10,4 9,4 28 15 29 16 SSW 1022,0 10
16.11.2017 01:00:00 10,4 9,2 22 12 - - SSW 1022,3 -
16.11.2017 00:00:00 10,5 8,8 21 11 25 14 SSW 1022,8 -
15.11.2017 23:00:00 10,5 9,2 22 12 29 16 SW 1023,2 10
15.11.2017 22:00:00 10,5 9,6 21 11 - - SW 1023,6 5
15.11.2017 21:00:00 10,1 9,1 16 9 22 12 SE 1023,5 10
15.11.2017 20:00:00 9,5 8,6 18 10 22 12 ESE 1023,7 4,9
15.11.2017 19:00:00 9,5 7,7 15 8 - - ESE 1024,0 10
15.11.2017 18:00:00 9,3 8,1 9 5 11 6 ESE 1024,0 6
15.11.2017 17:00:00 9,8 7,6 8 4 11 6 - 1024,1 -
15.11.2017 16:00:00 10,9 7,0 4 2 - - - 1024,1 -
15.11.2017 15:00:00 10,8 7,1 2 1 4 2 - 1023,8 -
15.11.2017 14:00:00 11,4 6,8 4 2 7 4 N 1023,8 -
15.11.2017 13:00:00 12,0 6,7 5 3 - - N 1023,8 -
15.11.2017 12:00:00 11,7 7,2 9 5 11 6 N 1023,8 -
15.11.2017 11:00:00 11,8 6,5 9 5 14 8 NNW 1023,8 -
15.11.2017 10:00:00 11,8 6,7 13 7 - - N 1023,2 -
15.11.2017 09:00:00 11,6 7,5 11 6 14 8 NNW 1022,8 -
15.11.2017 08:00:00 10,7 7,3 11 6 18 10 NW 1022,2 -
15.11.2017 07:00:00 10,0 7,6 26 14 - - NNW 1021,6 10
15.11.2017 06:00:00 10,9 8,8 18 10 29 16 NW 1021,1 10
15.11.2017 05:00:00 11,4 9,7 26 14 32 18 WNW 1020,9 5
15.11.2017 04:00:00 12,0 10,4 28 15 - - W 1020,8 10
15.11.2017 03:00:00 11,9 10,1 28 15 32 18 W 1020,8 7
15.11.2017 02:00:00 12,1 10,0 28 15 36 19 W 1020,7 10
15.11.2017 01:00:00 12,0 9,9 31 17 - - W 1020,8 10
15.11.2017 00:00:00 11,2 10,4 18 10 29 16 W 1020,6 8
14.11.2017 23:00:00 10,9 9,7 11 6 14 8 WSW 1020,6 6
14.11.2017 22:00:00 11,5 7,7 11 6 - - WSW 1020,7 -
14.11.2017 21:00:00 11,4 7,1 13 7 14 8 W 1020,6 -
14.11.2017 20:00:00 11,4 7,2 11 6 14 8 WNW 1020,7 -
14.11.2017 19:00:00 11,3 7,1 15 8 - - NW 1020,3 -
14.11.2017 18:00:00 11,4 7,0 15 8 18 10 NW 1019,9 -
14.11.2017 17:00:00 11,5 6,9 16 9 18 10 NW 1019,6 -
14.11.2017 16:00:00 11,6 7,1 18 10 - - NNW 1019,0 10
14.11.2017 15:00:00 11,6 7,2 16 9 25 14 NNW 1018,4 10
14.11.2017 14:00:00 11,3 8,7 22 12 29 16 NNW 1017,9 10
14.11.2017 13:00:00 11,3 9,5 35 19 - - WNW 1017,5 10
14.11.2017 12:00:00 11,2 9,9 37 20 43 23 WNW 1017,3 5
14.11.2017 11:00:00 10,7 9,6 42 23 50 27 W 1017,3 7
14.11.2017 10:00:00 10,4 8,6 50 27 - - W 1017,6 10
14.11.2017 09:00:00 10,6 7,0 54 29 58 31 W 1017,6 -
14.11.2017 08:00:00 10,1 4,5 50 27 54 29 W 1017,6 -
14.11.2017 07:00:00 9,8 2,1 48 26 - - WSW 1017,8 -
14.11.2017 06:00:00 9,4 3,0 44 24 50 27 W 1018,3 -
14.11.2017 05:00:00 9,5 1,6 35 19 47 25 W 1018,4 -
14.11.2017 04:00:00 9,5 1,0 37 20 - - W 1018,6 -
14.11.2017 03:00:00 9,3 2,3 29 16 43 23 W 1019,4 -
14.11.2017 02:00:00 8,8 3,0 29 16 40 21 W 1019,6 -
14.11.2017 01:00:00 9,4 2,2 22 12 - - WNW 1020,0 -
14.11.2017 00:00:00 9,3 1,1 21 11 25 14 NW 1020,0 -
13.11.2017 23:00:00 9,1 1,1 21 11 25 14 NNW 1020,2 -
13.11.2017 22:00:00 9,2 1,5 18 10 - - NNW 1020,2 -
13.11.2017 21:00:00 9,2 0,7 15 8 36 19 N 1020,3 -
13.11.2017 20:00:00 9,2 1,0 26 14 36 19 N 1020,0 -

tt = Température de l'air
td = dewpoint
ff = Vitesse du vent
fx = gusts
dd = Direction du vent
ppp = reduced air pressure
vv = visibility

stations d'obs. à proximité